Powrót do katalogu

COSMOS 2251 DEB

LostLEO
NORAD 35582·DEBRIS·🇷🇺 Russia

Wystrzelony Jun 16, 1993 z Plesetsk Cosmodrome

Loading…

Następne Przeloty (najbliższe 24 godziny)

TLE

NieaktualneSource: Space-Track

Epoka: Mar 31, 2011, 12:31 UTC

1 35582U 93036ALZ 11090.52218698  .00000654  00000-0  24158-3 0  9994
2 35582  74.0384  32.9578 0019569 352.2948   5.0303 14.34294388101883

Śledź COSMOS 2251 DEB w czasie rzeczywistym z AllMySat

Download on the App Store